[[{"header":{"parameterUnit":"m.s-1","parameterCategory":1,"la1":30.2991,"la2":30.254,"lo1":-89.0895,"lo2":-89.0444,"dy":0.0017,"dx":0.0017,"nx":28,"ny":28,"refTime":"2023-08-10T21:00:00:Z","depth":0,"parameterNumber":2,"parameterNumberName":"U-component_of_WINDS"},"data":[0,0,0,0,0,0,0,0,0,0,0,0,0,0,0,0,0,0,0,0,0,0,0,0,0,0,0,0,0,0,0,0,0,0,0,0,0,0,0,0,0,0,0,0,0,0,0,0,0,0,0,0,0,0,0,0,0,0,3.7602,3.7604,0,3.7758,3.776,3.7762,3.78,3.7799,3.7798,3.7797,3.7956,3.7961,3.7966,0,0,0,0,0,0,0,0,0,0,0,0,0,3.7338,3.7343,3.7602,3.7604,3.7606,3.7758,3.776,3.7762,3.78,3.7799,3.7798,3.7797,3.7954,3.796,3.7966,0,0,0,0,0,0,0,0,0,0,0,0,0,3.7469,3.7345,3.7602,3.7644,3.7649,3.7757,3.776,3.7763,3.7801,3.7799,3.7798,3.7796,3.7952,3.7959,3.7967,3.8045,0,0,3.7991,3.7994,0,0,0,0,0,0,0,0,3.7462,3.7479,3.7636,3.7641,3.7647,3.7758,3.7725,3.7857,3.7801,3.7743,3.7797,3.7795,3.7891,3.7904,3.7936,3.8052,3.8059,3.7991,3.7996,3.7999,3.8002,0,0,0,0,0,0,0,3.7453,3.7473,3.7664,3.7638,3.7645,3.7655,3.7672,3.775,3.7823,3.7748,3.7751,3.7769,3.7894,3.7929,3.794,3.8061,3.7991,3.7998,3.8003,3.8006,3.8252,3.8254,0,0,0,0,0,0,3.7436,3.7465,3.7659,3.7669,3.7549,3.7661,3.768,3.7724,3.7823,3.7836,3.777,3.777,3.7916,3.7931,3.7946,3.8046,3.7999,3.8007,3.8011,3.825,3.8252,3.8254,0,0,0,0,0,0,3.7431,3.7453,3.7653,3.7568,3.7594,3.7667,3.7716,3.7728,3.7763,3.784,3.7853,3.7792,3.7916,3.7935,3.8021,3.8051,3.801,3.8017,3.8248,3.8251,3.8253,3.8244,0,0,0,0,0,0,3.7423,3.7451,3.7481,3.7568,3.7598,3.7725,3.7718,3.7732,3.7776,3.7778,3.7864,3.7877,3.7916,3.8009,3.8028,3.8061,3.8023,3.8245,3.8249,3.8252,3.8242,3.8246,3.825,0,0,0,0,0,3.7413,3.7472,3.7483,3.7506,3.7637,3.7726,3.7744,3.7788,3.7778,3.781,3.7859,3.7874,3.8045,3.8017,3.804,3.8075,3.8244,3.8248,3.8252,3.824,3.8245,3.8249,0,0,0,0,0,0,3.7386,3.7484,3.7497,3.7585,3.7647,3.7733,3.7773,3.7792,3.7857,3.7856,3.7908,3.7927,3.801,3.8051,3.8019,3.8157,3.8144,3.8153,3.8127,3.8133,3.8137,3.8125,3.8029,0,0,0,0,0,3.739,3.7454,3.7536,3.7606,3.7637,3.7699,3.774,3.7769,3.7835,3.7861,3.7917,3.7981,3.805,3.8093,3.816,3.8248,3.8268,3.8283,3.8287,3.829,3.8297,3.8349,3.8357,3.8268,3.8268,3.8268,0,0,3.7399,3.7461,3.7498,3.7602,3.7654,3.7719,3.7721,3.779,3.784,3.7872,3.7957,3.8,3.8075,3.8162,3.8203,3.8199,3.8327,3.8296,3.8297,3.8303,3.8354,3.8362,3.837,3.8271,3.8271,3.827,0,0,3.745,3.7502,3.7567,3.7619,3.7698,3.774,3.7755,3.7839,3.7869,3.7955,3.7981,3.8041,3.8157,3.821,3.8251,3.8324,3.8341,3.8345,3.8365,3.8415,3.8422,3.8428,3.8456,3.8465,3.8351,3.8351,3.8351,0,3.7451,3.7551,3.7598,3.7667,3.7712,3.7745,3.7812,3.786,3.7956,3.7987,3.7981,3.8129,3.8181,3.8282,3.83,3.8333,3.8353,3.8335,3.8417,3.8424,3.8431,3.8458,3.8468,3.8351,3.8351,3.8351,3.8351,0,3.755,3.7619,3.7662,3.7756,3.7806,3.7873,3.793,3.7976,3.8001,3.8043,3.8132,3.8196,3.8277,3.8303,3.8328,3.8409,3.8404,3.8407,3.8395,3.8439,3.8465,3.8475,3.8352,3.8351,3.8351,3.8351,0,0,3.7588,3.7707,3.7722,3.7766,3.7855,3.791,3.7979,3.8059,3.8098,3.8163,3.8224,3.8322,3.8326,3.8373,3.8404,3.8447,3.8503,3.8445,3.8448,3.8455,3.8598,3.8597,3.8608,3.8514,3.8517,3.8518,3.8593,0,3.7651,3.7776,3.782,3.7923,3.7989,3.8022,3.8082,3.8144,3.8186,3.8248,3.8294,3.8364,3.8363,3.8392,3.8436,3.8487,3.8533,3.8482,3.8572,3.8574,3.8553,3.8621,3.8619,3.8686,3.8603,3.8605,3.8606,0,3.7741,3.7809,3.7918,3.8002,3.8031,3.8085,3.8163,3.8221,3.8293,3.832,3.8374,3.8403,3.8477,3.846,3.8564,3.8529,3.8568,3.8599,3.8603,3.8613,3.8593,3.8635,3.8708,3.8719,3.8622,3.8621,3.862,0,3.7759,3.7877,3.7959,3.7995,3.8094,3.8131,3.8174,3.8244,3.829,3.8359,3.8389,3.8465,3.8507,3.8565,3.8613,3.8596,3.8714,3.87,3.8739,3.8738,3.8763,3.8761,3.8845,3.8786,3.8786,3.8786,3.8786,0,3.7825,3.7892,3.7969,3.8019,3.8095,3.8146,3.8219,3.8264,3.8327,3.8387,3.8419,3.8475,3.8535,3.8599,3.8637,3.8718,3.8736,3.8761,3.8771,3.8759,3.8756,3.8786,3.8783,3.8789,3.8788,3.8788,3.8787,0,3.7859,3.7913,3.8005,3.8091,3.8114,3.8167,3.8241,3.8291,3.8335,3.8411,3.8432,3.85,3.8577,3.8631,3.873,3.8755,3.8844,3.8852,3.882,3.8825,3.8861,3.8857,3.8968,3.8986,3.8914,3.8915,3.8915,0,3.7898,3.795,3.8043,3.8086,3.8129,3.8197,3.8245,3.8297,3.8345,3.8431,3.8472,3.8551,3.8617,3.8739,3.8798,3.8874,3.8885,3.8919,3.8897,3.8884,3.8887,3.8884,3.889,3.8922,3.8923,3.8923,3.8923,0,3.7963,3.7987,3.8055,3.8132,3.8189,3.8252,3.8316,3.8349,3.8413,3.8465,3.8545,3.8596,3.8698,3.8776,3.8859,3.8903,3.8925,3.893,3.8943,3.8932,3.8912,3.8925,3.883,3.8927,3.8927,3.8927,3.8926,3.8926,3.8002,3.805,3.8123,3.8198,3.8251,3.8311,3.8363,3.8414,3.8481,3.8568,3.8595,3.8677,3.8749,3.8862,3.8907,3.8973,3.8971,3.899,3.8995,3.8999,3.9,3.8901,3.8988,3.8988,3.8988,3.8988,3.8988,0,3.8069,3.8118,3.8186,3.8275,3.8334,3.8349,3.8421,3.8469,3.8542,3.8607,3.8672,3.8764,3.8841,3.8906,3.8986,3.9026,3.9038,3.9046,3.9044,3.9054,3.8996,3.8977,3.9035,3.9035,3.9035,3.9035,3.9035,3.9035,3.8112,3.8195,3.8229,3.8339,3.8388,3.847,3.851,3.8565,3.8617,3.8719,3.8783,3.8825,3.8891,3.8976,3.9048,3.9065,3.9093,3.9099,3.9118,3.9063,3.9058,3.9053,3.9035,3.9104,3.9104,3.9171,3.9172,3.9172]},{"header":{"parameterUnit":"m.s-1","parameterCategory":1,"la1":30.2991,"la2":30.254,"lo1":-89.0895,"lo2":-89.0444,"dy":0.0017,"dx":0.0017,"nx":28,"ny":28,"refTime":"2023-08-10T21:00:00:Z","depth":0,"parameterNumber":3,"parameterNumberName":"V-component_of_WINDS"},"data":[0,0,0,0,0,0,0,0,0,0,0,0,0,0,0,0,0,0,0,0,0,0,0,0,0,0,0,0,0,0,0,0,0,0,0,0,0,0,0,0,0,0,0,0,0,0,0,0,0,0,0,0,0,0,0,0,0,0,-1.3483,-1.3483,0,-1.3484,-1.3484,-1.3484,-1.345,-1.3449,-1.3448,-1.3447,-1.3449,-1.345,-1.3451,0,0,0,0,0,0,0,0,0,0,0,0,0,-1.3453,-1.3454,-1.3483,-1.3483,-1.3483,-1.3484,-1.3484,-1.3484,-1.345,-1.3449,-1.3448,-1.3447,-1.3449,-1.345,-1.3451,0,0,0,0,0,0,0,0,0,0,0,0,0,-1.3461,-1.3454,-1.3483,-1.3466,-1.3464,-1.3484,-1.3484,-1.3484,-1.345,-1.3449,-1.3448,-1.3446,-1.3449,-1.345,-1.3451,-1.3487,0,0,-1.3456,-1.3456,0,0,0,0,0,0,0,0,-1.3461,-1.3463,-1.3468,-1.3467,-1.3465,-1.3465,-1.3474,-1.3485,-1.3451,-1.3456,-1.3447,-1.3446,-1.3456,-1.3457,-1.346,-1.3487,-1.3487,-1.3456,-1.3456,-1.3457,-1.3457,0,0,0,0,0,0,0,-1.3461,-1.3462,-1.3483,-1.3469,-1.3467,-1.3459,-1.3459,-1.3476,-1.3463,-1.3455,-1.3453,-1.3453,-1.3455,-1.3459,-1.346,-1.3487,-1.3456,-1.3457,-1.3458,-1.3458,-1.3545,-1.3546,0,0,0,0,0,0,-1.3462,-1.3462,-1.3483,-1.3483,-1.346,-1.3461,-1.346,-1.3467,-1.3463,-1.3461,-1.3454,-1.3452,-1.3457,-1.3458,-1.3459,-1.3502,-1.3457,-1.3458,-1.3459,-1.3543,-1.3545,-1.3547,0,0,0,0,0,0,-1.3462,-1.3464,-1.3483,-1.3472,-1.3474,-1.3463,-1.347,-1.3467,-1.3471,-1.3462,-1.346,-1.346,-1.3456,-1.3458,-1.3481,-1.3501,-1.3459,-1.346,-1.3542,-1.3544,-1.3546,-1.3586,0,0,0,0,0,0,-1.3461,-1.3464,-1.3477,-1.3472,-1.3474,-1.3504,-1.3471,-1.3468,-1.3473,-1.347,-1.3468,-1.3466,-1.3455,-1.3479,-1.3482,-1.3502,-1.3461,-1.354,-1.3543,-1.3545,-1.3582,-1.3589,-1.3594,0,0,0,0,0,-1.346,-1.3488,-1.3478,-1.3481,-1.349,-1.3505,-1.3506,-1.3492,-1.3475,-1.3488,-1.3483,-1.3466,-1.3498,-1.3481,-1.3485,-1.3506,-1.3538,-1.3542,-1.3545,-1.358,-1.3588,-1.3594,0,0,0,0,0,0,-1.3496,-1.3487,-1.3476,-1.3503,-1.3505,-1.3499,-1.3515,-1.3501,-1.3508,-1.3504,-1.3488,-1.3488,-1.3513,-1.3512,-1.3493,-1.354,-1.3515,-1.352,-1.3541,-1.3548,-1.3554,-1.3554,-1.3462,0,0,0,0,0,-1.3507,-1.3519,-1.3511,-1.3536,-1.3537,-1.3526,-1.3532,-1.3522,-1.3523,-1.3524,-1.352,-1.3522,-1.3533,-1.354,-1.355,-1.3582,-1.3582,-1.3598,-1.3604,-1.3609,-1.3613,-1.3631,-1.3639,-1.3558,-1.3558,-1.3558,0,0,-1.353,-1.3527,-1.3535,-1.3543,-1.3543,-1.3557,-1.3527,-1.3542,-1.3553,-1.3526,-1.3547,-1.3545,-1.3547,-1.3575,-1.3587,-1.3574,-1.3636,-1.3614,-1.3618,-1.3619,-1.3636,-1.3643,-1.365,-1.356,-1.356,-1.3559,0,0,-1.3579,-1.3577,-1.3598,-1.3599,-1.36,-1.3592,-1.3598,-1.3594,-1.3591,-1.3613,-1.3593,-1.3605,-1.3624,-1.3626,-1.363,-1.3681,-1.3666,-1.3684,-1.3716,-1.3734,-1.374,-1.3746,-1.3765,-1.3772,-1.3688,-1.3688,-1.3688,0,-1.3607,-1.3626,-1.3611,-1.3628,-1.3633,-1.3609,-1.3631,-1.3633,-1.3636,-1.364,-1.3626,-1.365,-1.3649,-1.3678,-1.369,-1.3694,-1.37,-1.3685,-1.374,-1.3746,-1.3751,-1.3769,-1.3776,-1.3691,-1.369,-1.369,-1.369,0,-1.3662,-1.3676,-1.3693,-1.3697,-1.3704,-1.3723,-1.3711,-1.372,-1.3709,-1.3704,-1.3726,-1.3725,-1.3734,-1.374,-1.3729,-1.3768,-1.376,-1.3743,-1.3718,-1.3761,-1.3778,-1.3785,-1.3694,-1.3693,-1.3692,-1.3692,0,0,-1.3733,-1.3729,-1.3736,-1.3738,-1.3737,-1.3748,-1.3767,-1.3775,-1.3784,-1.3787,-1.3803,-1.382,-1.3805,-1.3809,-1.3799,-1.3814,-1.3856,-1.3796,-1.3796,-1.3808,-1.3899,-1.3912,-1.392,-1.3846,-1.3847,-1.3848,-1.39,0,-1.3781,-1.3812,-1.38,-1.3833,-1.3846,-1.3824,-1.3841,-1.3843,-1.3838,-1.3849,-1.3844,-1.3857,-1.3835,-1.3838,-1.3852,-1.3848,-1.3874,-1.3844,-1.3862,-1.3862,-1.3862,-1.3929,-1.3942,-1.3991,-1.3906,-1.3907,-1.3908,0,-1.3841,-1.3848,-1.3882,-1.388,-1.3885,-1.39,-1.3907,-1.3918,-1.392,-1.3916,-1.3921,-1.3908,-1.3927,-1.3901,-1.3928,-1.3908,-1.3914,-1.3913,-1.3915,-1.3916,-1.3888,-1.3933,-1.4006,-1.4013,-1.3918,-1.3917,-1.3916,0,-1.3891,-1.3908,-1.393,-1.3933,-1.3931,-1.3942,-1.3942,-1.3943,-1.3949,-1.3956,-1.396,-1.3969,-1.3975,-1.3982,-1.3972,-1.3954,-1.4001,-1.3974,-1.3999,-1.3999,-1.401,-1.4009,-1.4085,-1.4013,-1.4013,-1.4013,-1.4013,0,-1.3946,-1.3968,-1.3953,-1.3967,-1.3991,-1.3977,-1.4002,-1.3999,-1.4,-1.4014,-1.3996,-1.4009,-1.3995,-1.4008,-1.4,-1.4024,-1.4026,-1.4024,-1.4022,-1.4026,-1.4026,-1.403,-1.4027,-1.4015,-1.4014,-1.4014,-1.4014,0,-1.4005,-1.3996,-1.4019,-1.4016,-1.4016,-1.4034,-1.4031,-1.4044,-1.4039,-1.4057,-1.406,-1.4052,-1.4066,-1.4057,-1.407,-1.4065,-1.4097,-1.409,-1.4096,-1.4095,-1.412,-1.4118,-1.4201,-1.4212,-1.4132,-1.4133,-1.4134,0,-1.4041,-1.4058,-1.4056,-1.4064,-1.4065,-1.4078,-1.4084,-1.4071,-1.4079,-1.4083,-1.4097,-1.4109,-1.4118,-1.4142,-1.4137,-1.4148,-1.4141,-1.417,-1.4143,-1.4147,-1.4143,-1.4142,-1.4144,-1.4176,-1.4176,-1.4177,-1.4178,0,-1.4106,-1.4101,-1.4111,-1.412,-1.4129,-1.4135,-1.414,-1.4148,-1.4135,-1.4144,-1.4158,-1.4166,-1.418,-1.4193,-1.4202,-1.4203,-1.4189,-1.4186,-1.4193,-1.4197,-1.4201,-1.42,-1.4112,-1.4185,-1.4184,-1.4183,-1.4183,-1.4183,-1.4156,-1.417,-1.4171,-1.4183,-1.4186,-1.4191,-1.4204,-1.42,-1.4211,-1.4222,-1.4214,-1.4231,-1.4234,-1.4244,-1.4247,-1.4261,-1.4249,-1.4258,-1.426,-1.4263,-1.4267,-1.4198,-1.4262,-1.4262,-1.4262,-1.4262,-1.4261,0,-1.4221,-1.4221,-1.4232,-1.424,-1.425,-1.4235,-1.424,-1.425,-1.4265,-1.4268,-1.4278,-1.4295,-1.4307,-1.4304,-1.4316,-1.4328,-1.4322,-1.4331,-1.433,-1.4331,-1.4276,-1.427,-1.4336,-1.4336,-1.4336,-1.4336,-1.4336,-1.4336,-1.4256,-1.4279,-1.4274,-1.4299,-1.4299,-1.4315,-1.432,-1.4325,-1.4328,-1.4347,-1.4358,-1.4355,-1.4357,-1.4369,-1.438,-1.4379,-1.4384,-1.4397,-1.4393,-1.4342,-1.4335,-1.4328,-1.4322,-1.4398,-1.4398,-1.4447,-1.4447,-1.4448]}]]